User: anonymous   Login
Location: Unspecified
(0.0000°N, 0.0000°E)
Time: 12:22:08
(UTC+00:00)
Language:

LITUANICASAT 2 - Orbit

View from above orbital plane
View from above orbital plane
View from above satellite
View from above satellite

Ground track
Ground track

The orbit data is extracted from the following two-line orbital elements,

1 42768U 17036D   18347.85014275 +.00001711 +00000-0 +77609-4 0  9992
2 42768 097.3810 044.1683 0016353 151.5853 208.6279 15.22068131081887
Epoch (UTC): 13 December 2018 20:24:12
Eccentricity: 0.0016353
inclination: 97.3810°
perigee height: 488 km
apogee height: 511 km
right ascension of ascending node: 44.1683°
argument of perigee: 151.5853°
revolutions per day: 15.22068131
mean anomaly at epoch: 208.6279°
orbit number at epoch: 8188

The dashed part of the orbit path shows where the satellite is in the earth's shadow,  

DLR